[[{"header":{"parameterUnit":"m.s-1","parameterCategory":1,"la1":30.2991,"la2":30.254,"lo1":-89.0895,"lo2":-89.0444,"dy":0.0017,"dx":0.0017,"nx":28,"ny":28,"refTime":"2025-06-16T03:00:00:Z","depth":0,"parameterNumber":2,"parameterNumberName":"U-component_of_WINDS"},"data":[0,0,0,0,0,0,0,0,0,0,0,0,0,0,0,0,0,0,0,0,0,0,0,0,0,0,0,0,0,0,0,0,0,0,0,0,0,0,0,0,0,0,0,0,0,0,0,0,0,0,0,0,0,0,0,0,0,0,1.8838,1.8839,0,1.8963,1.8964,1.8966,1.893,1.8927,1.8925,1.8922,1.9047,1.9053,1.9058,0,0,0,0,0,0,0,0,0,0,0,0,0,1.8563,1.8569,1.8838,1.8839,1.8841,1.8963,1.8964,1.8966,1.893,1.8927,1.8924,1.8921,1.9045,1.9052,1.9059,0,0,0,0,0,0,0,0,0,0,0,0,0,1.8685,1.857,1.8837,1.8838,1.8839,1.8962,1.8964,1.8966,1.8931,1.8927,1.8923,1.892,1.9043,1.9051,1.906,1.919,0,0,1.9086,1.909,0,0,0,0,0,0,0,0,1.8678,1.8695,1.8836,1.8838,1.8839,1.8927,1.8913,1.9041,1.8932,1.8896,1.8922,1.8918,1.901,1.9021,1.9053,1.9196,1.9201,1.9087,1.9092,1.9096,1.9098,0,0,0,0,0,0,0,1.867,1.8689,1.8887,1.8838,1.884,1.883,1.8843,1.8938,1.8973,1.8899,1.8896,1.8912,1.901,1.9045,1.9056,1.9203,1.9087,1.9094,1.91,1.9103,1.9456,1.946,0,0,0,0,0,0,1.8661,1.8683,1.8883,1.8891,1.8748,1.8838,1.8853,1.8903,1.8972,1.8979,1.8915,1.891,1.9032,1.9046,1.906,1.9216,1.9096,1.9104,1.9109,1.9452,1.9457,1.9462,0,0,0,0,0,0,1.8655,1.8679,1.8878,1.8786,1.8811,1.8847,1.8903,1.8907,1.8942,1.8984,1.899,1.8944,1.903,1.9048,1.9158,1.9219,1.9108,1.9115,1.9447,1.9453,1.9459,1.9528,0,0,0,0,0,0,1.8647,1.8677,1.8728,1.8788,1.8816,1.8975,1.8907,1.8912,1.8957,1.8951,1.9013,1.9019,1.9028,1.9145,1.9166,1.9229,1.9122,1.9442,1.945,1.9457,1.9521,1.9536,1.955,0,0,0,0,0,1.8637,1.8742,1.8731,1.8755,1.888,1.8979,1.8995,1.9003,1.8962,1.9013,1.904,1.9017,1.9209,1.9156,1.918,1.9247,1.9438,1.9447,1.9457,1.9514,1.9533,1.9549,0,0,0,0,0,0,1.8688,1.875,1.8738,1.8865,1.8917,1.8973,1.9037,1.9023,1.9087,1.9079,1.9086,1.91,1.9212,1.924,1.9181,1.9375,1.9317,1.9332,1.9353,1.9371,1.9385,1.9376,1.9129,0,0,0,0,0,1.8714,1.879,1.8839,1.8947,1.8973,1.9001,1.9044,1.9046,1.91,1.9121,1.9156,1.9208,1.928,1.9327,1.9395,1.9524,1.9536,1.9581,1.9596,1.9607,1.962,1.9689,1.9709,1.9493,1.9493,1.9493,0,0,1.8768,1.8811,1.8859,1.8958,1.8998,1.9076,1.902,1.9104,1.9161,1.9134,1.924,1.9267,1.9325,1.9445,1.9499,1.9471,1.9682,1.962,1.9629,1.9635,1.9701,1.9721,1.9739,1.9499,1.9498,1.9497,0,0,1.8907,1.8948,1.9041,1.9083,1.9145,1.9162,1.9184,1.9242,1.9259,1.9366,1.9347,1.9413,1.9537,1.9579,1.9617,1.9769,1.9751,1.9791,1.9867,1.9934,1.9951,1.9966,2.0019,2.0039,1.9803,1.9804,1.9804,0,1.8966,1.9083,1.9091,1.9177,1.922,1.9199,1.9293,1.9333,1.9414,1.9443,1.9411,1.9565,1.9603,1.9732,1.9769,1.98,1.9824,1.9784,1.9948,1.9963,1.9977,2.0028,2.0049,1.9808,1.9808,1.9807,1.9807,0,1.9153,1.9234,1.9302,1.9381,1.9432,1.9521,1.9541,1.9591,1.9588,1.9608,1.9716,1.976,1.9837,1.9867,1.9865,1.9995,1.9976,1.9946,1.9888,2.0002,2.005,2.007,1.9815,1.9813,1.9812,1.981,0,0,1.9328,1.9409,1.9434,1.9469,1.9535,1.9598,1.9685,1.9761,1.9803,1.9859,1.9932,2.0036,2.0008,2.0051,2.0053,2.0112,2.0228,2.0074,2.0076,2.0101,2.0373,2.0395,2.0418,2.0216,2.022,2.0223,2.0368,0,1.9472,1.9628,1.9636,1.9776,1.9851,1.9831,1.9907,1.9955,1.9975,2.004,2.0062,2.0136,2.0094,2.0119,2.0177,2.0202,2.0283,2.0192,2.0283,2.0286,2.0269,2.0443,2.0467,2.0602,2.0387,2.039,2.0392,0,1.9661,1.9724,1.9872,1.9926,1.9957,2.0026,2.0095,2.0157,2.021,2.0221,2.0268,2.0261,2.0349,2.0288,2.0408,2.0346,2.0383,2.0401,2.0406,2.0415,2.0346,2.0456,2.0645,2.0665,2.0422,2.042,2.0418,0,1.9774,1.9894,1.9998,2.0029,2.0095,2.0143,2.0173,2.0222,2.0267,2.0326,2.0355,2.0424,2.0461,2.0514,2.0525,2.048,2.0645,2.0585,2.0655,2.0655,2.0691,2.0689,2.0888,2.0715,2.0715,2.0715,2.0714,0,1.9934,2.0025,2.0049,2.0113,2.0214,2.0222,2.0321,2.0347,2.0391,2.0458,2.0445,2.0508,2.0519,2.0584,2.0593,2.0691,2.0708,2.0718,2.0719,2.0719,2.0718,2.0744,2.0735,2.072,2.0719,2.0718,2.0717,0,2.0076,2.0097,2.0209,2.0262,2.0277,2.0349,2.0394,2.0454,2.0473,2.0558,2.0578,2.0607,2.0683,2.0699,2.0789,2.0795,2.091,2.0902,2.0893,2.0892,2.0961,2.0954,2.1184,2.1214,2.1022,2.1024,2.1026,0,2.0177,2.0247,2.0308,2.0352,2.0384,2.0456,2.0501,2.0511,2.0558,2.0623,2.0675,2.0749,2.081,2.0931,2.0959,2.1027,2.1021,2.1096,2.1031,2.1028,2.1021,2.1017,2.1023,2.1109,2.1111,2.1113,2.1114,0,2.0354,2.036,2.0426,2.0496,2.055,2.0605,2.0657,2.0694,2.071,2.0764,2.0842,2.0888,2.098,2.1053,2.1121,2.115,2.1135,2.1135,2.1154,2.1155,2.1146,2.1151,2.0927,2.1129,2.1128,2.1127,2.1126,2.1125,2.0479,2.0539,2.0591,2.0665,2.0705,2.0754,2.0813,2.0838,2.0904,2.098,2.0981,2.1065,2.1114,2.1204,2.1237,2.1302,2.1278,2.1307,2.1314,2.1321,2.1327,2.1136,2.1314,2.1314,2.1313,2.1313,2.1313,0,2.0654,2.0686,2.0754,2.0827,2.0885,2.0866,2.0922,2.0971,2.1046,2.1094,2.1153,2.1242,2.1312,2.1346,2.1415,2.1461,2.1455,2.1478,2.1475,2.1482,2.1345,2.132,2.1482,2.1481,2.1481,2.1481,2.1481,2.1481,2.0752,2.0854,2.0866,2.0986,2.1017,2.11,2.1134,2.1178,2.1216,2.1316,2.1375,2.1396,2.1437,2.1509,2.1573,2.158,2.1606,2.1633,2.1637,2.1509,2.1491,2.1475,2.1452,2.1638,2.1639,2.1768,2.177,2.177]},{"header":{"parameterUnit":"m.s-1","parameterCategory":1,"la1":30.2991,"la2":30.254,"lo1":-89.0895,"lo2":-89.0444,"dy":0.0017,"dx":0.0017,"nx":28,"ny":28,"refTime":"2025-06-16T03:00:00:Z","depth":0,"parameterNumber":3,"parameterNumberName":"V-component_of_WINDS"},"data":[0,0,0,0,0,0,0,0,0,0,0,0,0,0,0,0,0,0,0,0,0,0,0,0,0,0,0,0,0,0,0,0,0,0,0,0,0,0,0,0,0,0,0,0,0,0,0,0,0,0,0,0,0,0,0,0,0,0,3.8575,3.8577,0,3.8805,3.8807,3.881,3.8803,3.8799,3.8796,3.8793,3.9034,3.9043,3.9052,0,0,0,0,0,0,0,0,0,0,0,0,0,3.813,3.8138,3.8574,3.8577,3.858,3.8804,3.8808,3.8811,3.8803,3.8799,3.8795,3.8792,3.9031,3.9042,3.9053,0,0,0,0,0,0,0,0,0,0,0,0,0,3.8338,3.814,3.8574,3.8603,3.8608,3.8804,3.8808,3.8812,3.8804,3.8799,3.8794,3.879,3.9027,3.9041,3.9055,3.9237,0,0,3.9098,3.9104,0,0,0,0,0,0,0,0,3.8326,3.8354,3.8596,3.8602,3.8607,3.877,3.8739,3.8955,3.8805,3.873,3.8793,3.8787,3.895,3.897,3.9024,3.9249,3.9259,3.9099,3.9107,3.9113,3.9117,0,0,0,0,0,0,0,3.8312,3.8344,3.8666,3.86,3.8607,3.8605,3.863,3.878,3.8864,3.8736,3.8736,3.8763,3.8952,3.9011,3.903,3.9263,3.9098,3.9111,3.912,3.9125,3.9645,3.9651,0,0,0,0,0,0,3.829,3.8332,3.8658,3.8673,3.8452,3.8617,3.8644,3.8723,3.8863,3.8879,3.8767,3.8762,3.8989,3.9013,3.9038,3.926,3.9113,3.9126,3.9135,3.964,3.9647,3.9652,0,0,0,0,0,0,3.8281,3.832,3.8649,3.8502,3.8544,3.863,3.8718,3.873,3.8788,3.8886,3.8901,3.8811,3.8986,3.9018,3.9187,3.9268,3.9133,3.9146,3.9634,3.9642,3.965,3.9706,0,0,0,0,0,0,3.8268,3.8316,3.8387,3.8504,3.8552,3.8794,3.8723,3.8738,3.8812,3.8807,3.8931,3.8947,3.8985,3.9166,3.9201,3.9285,3.9157,3.9627,3.9638,3.9647,3.9697,3.9715,3.973,0,0,0,0,0,3.8252,3.8395,3.839,3.843,3.8642,3.8799,3.8826,3.8865,3.8818,3.889,3.8952,3.8943,3.9253,3.9183,3.9223,3.9312,3.9622,3.9635,3.9646,3.969,3.9711,3.9729,0,0,0,0,0,0,3.8288,3.8411,3.8407,3.8592,3.8684,3.8797,3.8889,3.8887,3.8997,3.8988,3.9033,3.9061,3.9229,3.9288,3.9208,3.9495,3.9432,3.9452,3.9451,3.9472,3.9488,3.9471,3.9168,0,0,0,0,0,3.8316,3.8432,3.8534,3.8688,3.8734,3.8803,3.8873,3.8894,3.8993,3.9033,3.9107,3.9204,3.9323,3.9401,3.9516,3.9704,3.9731,3.9785,3.9801,3.9814,3.9832,3.9934,3.9959,3.9692,3.9692,3.9692,0,0,3.8378,3.846,3.8531,3.8697,3.8771,3.889,3.8836,3.8966,3.9055,3.9053,3.9216,3.9274,3.9384,3.9563,3.9645,3.9617,3.9911,3.983,3.9839,3.985,3.9949,3.9974,3.9996,3.97,3.9699,3.9698,0,0,3.8552,3.8625,3.876,3.8834,3.8946,3.899,3.9022,3.9135,3.9172,3.9336,3.9336,3.9442,3.9647,3.9725,3.9791,3.9989,3.9985,4.0025,4.0112,4.021,4.0231,4.025,4.032,4.0344,4.0042,4.0042,4.0042,0,3.8615,3.8794,3.883,3.8959,3.9031,3.9031,3.9167,3.9238,3.9383,3.9433,3.9398,3.9651,3.9727,3.9922,3.997,4.0024,4.0061,4.0012,4.0225,4.0244,4.0262,4.0329,4.0355,4.0046,4.0046,4.0046,4.0045,0,3.8866,3.899,3.9085,3.9221,3.9304,3.9436,3.9491,3.9571,3.9584,3.9632,3.9797,3.9886,4.0017,4.0065,4.0081,4.0263,4.0241,4.0215,4.0153,4.0291,4.0355,4.0381,4.0052,4.0051,4.005,4.0049,0,0,3.9072,3.9222,3.9257,3.9317,3.9439,3.9536,3.9667,3.9793,3.986,3.9958,4.0069,4.0239,4.0215,4.029,4.0314,4.04,4.0549,4.0364,4.0367,4.0394,4.0753,4.0772,4.0801,4.0546,4.0551,4.0555,4.0744,0,3.9258,3.9489,3.9523,3.9727,3.9841,3.9841,3.9955,4.0041,4.0088,4.0192,4.0244,4.0364,4.0323,4.0368,4.0453,4.0513,4.0622,4.05,4.065,4.0655,4.0623,4.0835,4.0857,4.1031,4.0769,4.0773,4.0776,0,3.9507,3.9609,3.9824,3.9926,3.9975,4.0077,4.0194,4.0293,4.039,4.0418,4.0499,4.0511,4.0647,4.0576,4.0763,4.0679,4.0742,4.078,4.0787,4.0804,4.0725,4.0857,4.1087,4.1113,4.0816,4.0813,4.081,0,3.9635,3.9826,3.9978,4.003,4.0154,4.0225,4.028,4.0372,4.0445,4.0547,4.0594,4.0711,4.0776,4.0866,4.0909,4.0854,4.1092,4.1026,4.1119,4.1118,4.1171,4.1167,4.1414,4.121,4.121,4.1209,4.1209,0,3.984,3.9971,4.0037,4.0131,4.0277,4.0314,4.0458,4.0511,4.0592,4.0696,4.0703,4.0801,4.0851,4.0956,4.099,4.1138,4.1168,4.1194,4.1202,4.1194,4.1191,4.1237,4.1226,4.1216,4.1215,4.1213,4.1212,0,4.0009,4.0058,4.0224,4.0325,4.0354,4.0457,4.0544,4.0635,4.0679,4.0811,4.0844,4.0914,4.1037,4.1088,4.1241,4.1263,4.1433,4.1432,4.14,4.1403,4.1493,4.1483,4.1779,4.1819,4.1588,4.159,4.1592,0,4.0137,4.0237,4.0348,4.0417,4.0473,4.0585,4.0658,4.0696,4.0772,4.0888,4.0965,4.1087,4.1187,4.1384,4.145,4.1565,4.1567,4.1662,4.1584,4.1572,4.1568,4.1561,4.1571,4.1677,4.1679,4.1681,4.1683,0,4.0358,4.0376,4.0481,4.0593,4.0679,4.077,4.0858,4.0914,4.0966,4.1051,4.1175,4.1253,4.1406,4.1527,4.1645,4.1702,4.1702,4.1706,4.1733,4.1727,4.1704,4.1717,4.1439,4.17,4.1698,4.1697,4.1696,4.1695,4.0511,4.0599,4.069,4.0805,4.0874,4.0956,4.1045,4.1098,4.1203,4.1329,4.1345,4.1479,4.157,4.1728,4.1789,4.1894,4.187,4.191,4.1921,4.193,4.1935,4.1686,4.1916,4.1915,4.1915,4.1915,4.1914,0,4.0733,4.079,4.0895,4.1016,4.1106,4.1094,4.119,4.1266,4.1383,4.1467,4.1564,4.1706,4.1823,4.1895,4.2012,4.2082,4.2084,4.2111,4.2107,4.212,4.1951,4.1915,4.2107,4.2107,4.2107,4.2107,4.2107,4.2107,4.0859,4.1007,4.1035,4.1216,4.1273,4.1402,4.1457,4.1532,4.1599,4.1756,4.1852,4.1897,4.1977,4.2099,4.2204,4.2222,4.2265,4.2294,4.2311,4.2152,4.2132,4.2113,4.208,4.2303,4.2304,4.2471,4.2473,4.2474]}]]